Tracking 28520 objects as of 29-Feb-2024
HD Live streaming from Space Station
objects crossing your sky now

DIRECTV 6 (TEMPO 2)

Track DIRECTV 6 (TEMPO 2) now!
DIRECTV 6 (TEMPO 2) is classified as:


NORAD ID: 24748
Int'l Code: 1997-011A
Perigee: 36,028.3 km
Apogee: 36,264.0 km
Inclination: 12.1 °
Period: 1,454.1 minutes
Semi major axis: 42517 km
RCS: 12.5892 m2 (large)
Launch date: March 8, 1997
Source: United States (US)
Launch site: AIR FORCE EASTERN TEST RANGE (AFETR)

Direct-to-home TV; 32 Ku-band transponders
Your satellite tracking list
Your tracking list is empty




NASA's NSSDC Master Catalog

Two Line Element Set (TLE):
1 24748U 97011A   24059.85882501  .00000059  00000-0  00000-0 0  9994
2 24748  12.0736  28.5538 0027716 300.7606 209.4081  0.99027664 98174
Source of the keplerian elements: AFSPC